WXM80 ListenWXM80 Stop

You find our weather info also at:

UK Metoffice

WeatherCloud

Weather Underground

Northeastern Weather Network

AWEKAS

Citizen Weather Observer Program (CWOP)

HAMweather, WeatherForYou, PWS Weather


Weather Underground History page Text

Daily Summary for January 31, 2018 Units:  Metric    English   Both
« Previous Day
Next Day »
Daily Weekly Monthly Yearly Custom
  High: Low: Average:
Temperature: -17.8 °C -6.6 °C -2.7 °C
Dew Point: -17.8 °C -11.1 °C -8.4 °C
Humidity: Humidity % 45 % 65 %
Wind Speed: 0 km/h 0 km/h 6 km/h
Wind Gust: 0 km/h - -
Wind:- - WSW
Pressure: 0 hPa 1009.4 hPa -
Precipitation: 0 mm    
Historical Graphs
 
 
Tabular Data for January 31, 2018
Time Temperature Dew Point Pressure Wind Wind Speed Wind Gust Humidity Rainfall Rate (Hourly)
-17.8 °C -17.8 °C 0 hPa Calm     Humidity % 0 mm
00:04 -3.3 °C -7.3 °C 1012.4 hPa NW 4.8 km/h 9.3 km/h 74 % 0 mm
00:09 -3.3 °C -7.3 °C 1012.4 hPa North 7.6 km/h 13 km/h 74 % 0 mm
00:15 -3.4 °C -7.4 °C 1012.4 hPa NNW 5.1 km/h 11.3 km/h 74 % 0 mm
00:20 -3.4 °C -7.4 °C 1012.4 hPa NNW 9.5 km/h 13 km/h 74 % 0 mm
00:25 -3.4 °C -7.6 °C 1012.4 hPa NNW 7.1 km/h 14.8 km/h 73 % 0 mm
00:30 -3.4 °C -7.8 °C 1012.4 hPa NNW 11.6 km/h 20.4 km/h 72 % 0 mm
00:35 -3.5 °C -8 °C 1012.8 hPa NNW 8.2 km/h 16.7 km/h 71 % 0 mm
00:40 -3.6 °C -8.1 °C 1012.8 hPa NNW 7.7 km/h 18.5 km/h 71 % 0 mm
00:45 -3.6 °C -8.3 °C 1012.8 hPa WNW 7.1 km/h 19.3 km/h 70 % 0 mm
00:50 -3.7 °C -8.3 °C 1012.8 hPa NW 12.9 km/h 18.5 km/h 70 % 0 mm
00:55 -3.8 °C -8.4 °C 1012.8 hPa NNW 9.3 km/h 18.5 km/h 70 % 0 mm
01:00 -3.8 °C -8.5 °C 1012.8 hPa WNW 6.9 km/h 14.8 km/h 70 % 0 mm
01:05 -3.9 °C -8.6 °C 1012.8 hPa NNW 9 km/h 14.8 km/h 70 % 0 mm
01:10 -3.9 °C -8.8 °C 1012.8 hPa WNW 8.5 km/h 20.9 km/h 69 % 0 mm
01:15 -4 °C -8.7 °C 1012.8 hPa NNW 8 km/h 19.3 km/h 70 % 0 mm
01:20 -4 °C -8.7 °C 1012.8 hPa NNW 4.8 km/h 14.8 km/h 70 % 0 mm
01:25 -4.1 °C -8.7 °C 1012.8 hPa NW 8.4 km/h 18.5 km/h 70 % 0 mm
01:30 -4.2 °C -9 °C 1012.8 hPa NNW 6.9 km/h 16.7 km/h 69 % 0 mm
01:35 -4.2 °C -8.8 °C 1012.8 hPa North 5.5 km/h 13 km/h 70 % 0 mm
01:40 -4.2 °C -9.1 °C 1012.8 hPa NW 8.7 km/h 13 km/h 69 % 0 mm
01:45 -4.2 °C -9.1 °C 1012.8 hPa NNW 9.3 km/h 11.1 km/h 69 % 0 mm
01:50 -4.3 °C -8.9 °C 1013.1 hPa NNE 6.3 km/h 18.5 km/h 70 % 0 mm
01:56 -4.3 °C -9.2 °C 1012.8 hPa NNW 9 km/h 16.7 km/h 69 % 0 mm
02:01 -4.3 °C -9.2 °C 1013.1 hPa NW 8.5 km/h 17.7 km/h 69 % 0 mm
02:06 -4.3 °C -9.2 °C 1013.1 hPa NW 10.1 km/h 18.5 km/h 69 % 0 mm
02:11 -4.4 °C -9.1 °C 1013.1 hPa NW 7.6 km/h 13 km/h 70 % 0 mm
02:16 -4.4 °C -9.1 °C 1013.1 hPa NNE 8.5 km/h 18.5 km/h 70 % 0 mm
02:21 -4.4 °C -8.9 °C 1013.1 hPa NNW 5.8 km/h 18.5 km/h 71 % 0 mm
02:26 -4.4 °C -8.9 °C 1013.1 hPa NW 5.1 km/h 9.3 km/h 71 % 0 mm
02:31 -4.5 °C -8.9 °C 1013.1 hPa North 7.4 km/h 13 km/h 71 % 0 mm
02:36 -4.5 °C -8.9 °C 1013.4 hPa North 10 km/h 18.5 km/h 71 % 0 mm
02:41 -4.6 °C -9 °C 1013.4 hPa NNE 6.1 km/h 11.1 km/h 71 % 0 mm
02:46 -4.6 °C -9 °C 1013.4 hPa North 6.1 km/h 11.1 km/h 71 % 0 mm
02:51 -4.6 °C -8.9 °C 1013.4 hPa North 5.3 km/h 9.3 km/h 72 % 0 mm
02:56 -4.6 °C -8.9 °C 1013.4 hPa WNW 6.3 km/h 13 km/h 72 % 0 mm
03:01 -4.7 °C -8.8 °C 1013.8 hPa North 5.3 km/h 11.1 km/h 73 % 0 mm
03:06 -4.7 °C -8.8 °C 1013.8 hPa WNW 1.1 km/h 9.3 km/h 73 % 0 mm
03:11 -4.7 °C -8.8 °C 1013.8 hPa NW 1.9 km/h 5.6 km/h 73 % 0 mm
03:16 -4.7 °C -8.8 °C 1013.8 hPa NW 8.9 km/h 14.8 km/h 73 % 0 mm
03:21 -4.7 °C -9 °C 1013.8 hPa West 6.8 km/h 8 km/h 72 % 0 mm
03:26 -4.8 °C -9.1 °C 1013.8 hPa NW 7.2 km/h 14.8 km/h 72 % 0 mm
03:32 -4.8 °C -9.1 °C 1014.1 hPa NW 8.4 km/h 18.5 km/h 72 % 0 mm
03:37 -4.8 °C -9.3 °C 1014.1 hPa WNW 7.2 km/h 18.5 km/h 71 % 0 mm
03:42 -4.9 °C -9.3 °C 1014.1 hPa West 6.8 km/h 18.5 km/h 71 % 0 mm
03:47 -4.9 °C -9.4 °C 1014.1 hPa WNW 7.2 km/h 18.5 km/h 71 % 0 mm
03:52 -5 °C -9.6 °C 1014.4 hPa WNW 5.5 km/h 18.5 km/h 70 % 0 mm
03:57 -5 °C -9.6 °C 1014.4 hPa WNW 5 km/h 18.5 km/h 70 % 0 mm
04:02 -5.1 °C -9.7 °C 1014.4 hPa WNW 9.3 km/h 16.7 km/h 70 % 0 mm
04:07 -5.1 °C -9.7 °C 1014.1 hPa NW 5.8 km/h 9.3 km/h 70 % 0 mm
04:12 -5.2 °C -9.8 °C 1014.4 hPa NNW 6.4 km/h 13 km/h 70 % 0 mm
04:17 -5.2 °C -9.6 °C 1014.4 hPa WNW 5.1 km/h 9.3 km/h 71 % 0 mm
04:22 -5.2 °C -9.8 °C 1014.4 hPa NW 10 km/h 14.8 km/h 70 % 0 mm
04:27 -5.3 °C -9.7 °C 1014.8 hPa NW 3.5 km/h 11.1 km/h 71 % 0 mm
04:32 -5.3 °C -9.8 °C 1014.8 hPa NNE 5.8 km/h 18.5 km/h 71 % 0 mm
04:37 -5.4 °C -10 °C 1014.8 hPa North 8.2 km/h 16.7 km/h 70 % 0 mm
04:42 -5.4 °C -9.9 °C 1014.8 hPa NW 5.8 km/h 14.5 km/h 71 % 0 mm
04:47 -5.4 °C -10.1 °C 1014.8 hPa NNW 4.2 km/h 14.8 km/h 70 % 0 mm
04:52 -5.5 °C -9.9 °C 1014.8 hPa WNW 5.8 km/h 9.3 km/h 71 % 0 mm
04:57 -5.6 °C -10 °C 1014.8 hPa NW 7.9 km/h 11.1 km/h 71 % 0 mm
05:02 -5.6 °C -10.2 °C 1014.8 hPa NW 6.4 km/h 18.5 km/h 70 % 0 mm
05:08 -5.6 °C -10.1 °C 1015.1 hPa WNW 3.4 km/h 16.7 km/h 71 % 0 mm
05:13 -5.7 °C -10.3 °C 1015.1 hPa NW 6.3 km/h 9.7 km/h 70 % 0 mm
05:18 -5.7 °C -10.2 °C 1015.1 hPa West 3.7 km/h 13 km/h 71 % 0 mm
05:23 -5.7 °C -10.2 °C 1015.5 hPa WNW 5.8 km/h 9.3 km/h 71 % 0 mm
05:28 -5.8 °C -10.2 °C 1015.5 hPa NW 5.1 km/h 11.1 km/h 71 % 0 mm
05:33 -5.8 °C -10.3 °C 1015.1 hPa WNW 8.2 km/h 13 km/h 71 % 0 mm
05:38 -5.8 °C -10.3 °C 1015.5 hPa NW 7.2 km/h 13 km/h 71 % 0 mm
05:43 -5.9 °C -10.3 °C 1015.5 hPa NNW 4.7 km/h 14.8 km/h 71 % 0 mm
05:48 -5.9 °C -10.3 °C 1015.8 hPa NNE 6.6 km/h 13 km/h 71 % 0 mm
05:53 -5.9 °C -10.3 °C 1015.8 hPa NW 10.9 km/h 17.7 km/h 71 % 0 mm
05:58 -6 °C -10.4 °C 1015.8 hPa NNW 8.2 km/h 13 km/h 71 % 0 mm
06:03 -6.1 °C -10.7 °C 1015.8 hPa WNW 6 km/h 14.8 km/h 70 % 0 mm
06:08 -6.1 °C -10.7 °C 1015.8 hPa WNW 7.9 km/h 18.5 km/h 70 % 0 mm
06:13 -6.1 °C -10.7 °C 1016.1 hPa WNW 4 km/h 11.1 km/h 70 % 0 mm
06:18 -6.1 °C -10.7 °C 1015.8 hPa WNW 3.5 km/h 11.1 km/h 70 % 0 mm
06:23 -6.2 °C -10.8 °C 1016.1 hPa NW 1.1 km/h 5.6 km/h 70 % 0 mm
06:28 -6.2 °C -10.8 °C 1016.1 hPa West 4.8 km/h 14.8 km/h 70 % 0 mm
06:33 -6.2 °C -11 °C 1016.5 hPa NW 12.4 km/h 14.8 km/h 69 % 0 mm
06:39 -6.3 °C -11.1 °C 1016.5 hPa West 8.2 km/h 20.9 km/h 69 % 0 mm
06:44 -6.3 °C -11.1 °C 1016.8 hPa NNW 6.4 km/h 13 km/h 69 % 0 mm
06:49 -6.3 °C -11.1 °C 1016.8 hPa NW 3.4 km/h 5.6 km/h 69 % 0 mm
06:54 -6.3 °C -10.9 °C 1016.8 hPa West 4.5 km/h 11.1 km/h 70 % 0 mm
06:59 -6.3 °C -10.9 °C 1016.8 hPa WNW 6.6 km/h 7.4 km/h 70 % 0 mm
07:04 -6.4 °C -10.8 °C 1017.2 hPa West 4 km/h 9.3 km/h 71 % 0 mm
07:09 -6.4 °C -10.8 °C 1016.8 hPa WNW 3.5 km/h 11.1 km/h 71 % 0 mm
07:14 -6.4 °C -10.8 °C 1016.8 hPa West 5.8 km/h 16.7 km/h 71 % 0 mm
07:19 -6.5 °C -11.1 °C 1017.2 hPa WNW 7.7 km/h 16.7 km/h 70 % 0 mm
07:24 -6.5 °C -11.1 °C 1017.2 hPa WNW 4 km/h 9.3 km/h 70 % 0 mm
07:29 -6.6 °C -11.1 °C 1017.2 hPa WNW 6.6 km/h 13 km/h 70 % 0 mm
07:34 -6.6 °C -11.1 °C 1017.5 hPa West 9.5 km/h 18.5 km/h 70 % 0 mm
07:39 -6.6 °C -10.9 °C 1017.5 hPa WNW 7.9 km/h 13 km/h 71 % 0 mm
07:44 -6.6 °C -10.9 °C 1017.8 hPa West 9 km/h 13 km/h 71 % 0 mm
07:49 -6.6 °C -11.1 °C 1017.8 hPa SW 4.3 km/h 18.5 km/h 70 % 0 mm
07:54 -6.5 °C -10.9 °C 1017.8 hPa WNW 4.5 km/h 16.7 km/h 71 % 0 mm
07:59 -6.5 °C -10.9 °C 1017.8 hPa WSW 6.8 km/h 11.1 km/h 71 % 0 mm
08:05 -6.4 °C -10.8 °C 1017.8 hPa WSW 5 km/h 9.3 km/h 71 % 0 mm
08:10 -6.4 °C -10.8 °C 1017.8 hPa WNW 1.6 km/h 5.6 km/h 71 % 0 mm
08:15 -6.3 °C -10.7 °C 1017.8 hPa WSW 6.3 km/h 11.3 km/h 71 % 0 mm
08:20 -6.2 °C -10.8 °C 1017.8 hPa WNW 6.9 km/h 14.8 km/h 70 % 0 mm
08:25 -6.1 °C -10.7 °C 1017.8 hPa WNW 3.7 km/h 14.8 km/h 70 % 0 mm
08:30 -6 °C -10.6 °C 1017.8 hPa West 6.9 km/h 16.7 km/h 70 % 0 mm
08:35 -5.9 °C -10.7 °C 1017.8 hPa WNW 5.6 km/h 11.1 km/h 69 % 0 mm
08:40 -5.8 °C -10.8 °C 1017.5 hPa NW 7.7 km/h 13 km/h 68 % 0 mm
08:45 -5.7 °C -10.9 °C 1017.8 hPa West 8.7 km/h 14.8 km/h 67 % 0 mm
08:50 -5.6 °C -10.8 °C 1017.5 hPa WNW 5 km/h 11.1 km/h 67 % 0 mm
08:55 -5.4 °C -10.6 °C 1017.5 hPa WNW 1.9 km/h 6.4 km/h 67 % 0 mm
09:00 -5.2 °C -10.4 °C 1017.5 hPa WNW 9.3 km/h 14.8 km/h 67 % 0 mm
09:05 -5 °C -10.4 °C 1017.5 hPa WNW 4.7 km/h 7.4 km/h 66 % 0 mm
09:10 -4.8 °C -10.3 °C 1017.5 hPa West 3.1 km/h 14.8 km/h 65 % 0 mm
09:15 -4.6 °C -10.3 °C 1017.5 hPa WNW 4 km/h 11.1 km/h 64 % 0 mm
09:20 -4.4 °C -10.1 °C 1017.8 hPa WNW 8.4 km/h 11.1 km/h 65 % 0 mm
09:25 -4.3 °C -10.1 °C 1017.5 hPa WNW 3.9 km/h 7.4 km/h 64 % 0 mm
09:31 -4.2 °C -10 °C 1017.5 hPa WNW 3.5 km/h 5.6 km/h 64 % 0 mm
09:36 -4.2 °C -10.2 °C 1017.8 hPa NW 4.8 km/h 19.3 km/h 63 % 0 mm
09:41 -4 °C -10 °C 1017.5 hPa NW 3.2 km/h 16.1 km/h 63 % 0 mm
09:46 -3.9 °C -9.9 °C 1017.2 hPa WNW 8 km/h 14.5 km/h 63 % 0 mm
09:51 -3.7 °C -9.6 °C 1017.5 hPa West 3.2 km/h 8 km/h 64 % 0 mm
09:56 -3.6 °C -9.6 °C 1017.2 hPa West 5.3 km/h 9.3 km/h 63 % 0 mm
10:01 -3.4 °C -9.4 °C 1017.5 hPa West 4 km/h 11.1 km/h 63 % 0 mm
10:06 -3.2 °C -9.4 °C 1017.2 hPa NW 8.4 km/h 14.8 km/h 62 % 0 mm
10:11 -3.1 °C -9.6 °C 1016.8 hPa West 1.6 km/h 5.6 km/h 61 % 0 mm
10:16 -2.9 °C -9.4 °C 1016.8 hPa WNW 6.4 km/h 9.7 km/h 61 % 0 mm
10:21 -2.9 °C -9.6 °C 1016.8 hPa West 5.5 km/h 7.4 km/h 60 % 0 mm
10:26 -2.7 °C -9.4 °C 1016.1 hPa SSW 6 km/h 11.1 km/h 60 % 0 mm
10:31 -2.4 °C -8.5 °C 1016.5 hPa NNW 2.6 km/h 5.6 km/h 63 % 0 mm
10:36 -2.2 °C -9.2 °C 1016.1 hPa NNW 5.1 km/h 9.3 km/h 59 % 0 mm
10:41 -2.3 °C -9.2 °C 1016.1 hPa NW 3.1 km/h 7.4 km/h 59 % 0 mm
10:46 -2.3 °C -9.1 °C 1016.5 hPa WNW 7.6 km/h 11.1 km/h 60 % 0 mm
10:51 -2.4 °C -9.6 °C 1016.5 hPa WNW 4.7 km/h 13 km/h 58 % 0 mm
10:56 -2.3 °C -9.1 °C 1016.1 hPa NW 7.1 km/h 9.3 km/h 60 % 0 mm
11:01 -2.3 °C -9.2 °C 1016.5 hPa WSW 7.6 km/h 9.7 km/h 59 % 0 mm
11:06 -2.3 °C -9.4 °C 1016.5 hPa NW 3.5 km/h 14.8 km/h 58 % 0 mm
11:11 -2.3 °C -9.5 °C 1016.1 hPa West 8.4 km/h 11.1 km/h 58 % 0 mm
11:16 -2.3 °C -9.5 °C 1016.1 hPa NNW 3.9 km/h 7.4 km/h 58 % 0 mm
11:21 -2.3 °C -9.4 °C 1016.1 hPa NW 5.1 km/h 11.1 km/h 58 % 0 mm
11:26 -2.3 °C -9.4 °C 1016.5 hPa WNW 6.9 km/h 13 km/h 58 % 0 mm
11:31 -2.3 °C -9.5 °C 1016.5 hPa SW 9.8 km/h 16.7 km/h 58 % 0 mm
11:36 -2.4 °C -9.6 °C 1016.5 hPa WSW 6 km/h 9.7 km/h 58 % 0 mm
11:39 -2.4 °C -9.4 °C 1016.5 hPa WNW 4.3 km/h 13 km/h 59 % 0 mm
11:44 -2.4 °C -9.4 °C 1016.5 hPa WNW 7.6 km/h 11.1 km/h 59 % 0 mm
11:49 -2.5 °C -9.2 °C 1016.5 hPa NW 3.9 km/h 7.4 km/h 60 % 0 mm
11:54 -2.5 °C -9 °C 1016.1 hPa WSW 6.3 km/h 12.9 km/h 61 % 0 mm
11:59 -2.7 °C -9.2 °C 1015.8 hPa WSW 14.8 km/h 18.5 km/h 61 % 0 mm
12:04 -2.8 °C -9.5 °C 1015.8 hPa SW 7.7 km/h 14.8 km/h 60 % 0 mm
12:09 -2.9 °C -9.4 °C 1015.8 hPa WSW 6.1 km/h 11.3 km/h 61 % 0 mm
12:14 -2.8 °C -9.1 °C 1015.8 hPa WNW 6.8 km/h 11.1 km/h 62 % 0 mm
12:19 -2.8 °C -9.3 °C 1015.5 hPa WSW 8.4 km/h 11.3 km/h 61 % 0 mm
12:24 -2.6 °C -9.3 °C 1015.1 hPa WSW 6.1 km/h 13 km/h 60 % 0 mm
12:30 -2.5 °C -9.4 °C 1015.1 hPa NW 12.4 km/h 18.5 km/h 59 % 0 mm
12:35 -2.4 °C -9.1 °C 1015.1 hPa SSW 7.4 km/h 13 km/h 60 % 0 mm
12:40 -2.3 °C -8.8 °C 1015.1 hPa WSW 4.7 km/h 13 km/h 61 % 0 mm
12:45 -2.2 °C -8.9 °C 1014.8 hPa SW 7.9 km/h 14.8 km/h 60 % 0 mm
12:50 -2.2 °C -9.3 °C 1014.8 hPa SW 6.1 km/h 9.7 km/h 58 % 0 mm
12:55 -2 °C -9.2 °C 1014.8 hPa WSW 8.4 km/h 14.8 km/h 58 % 0 mm
13:00 -1.9 °C -9.3 °C 1014.8 hPa West 5 km/h 18.5 km/h 57 % 0 mm
13:05 -1.8 °C -9.2 °C 1014.4 hPa WSW 5.3 km/h 13 km/h 57 % 0 mm
13:10 -1.7 °C -9.1 °C 1014.1 hPa WSW 3.5 km/h 8 km/h 57 % 0 mm
13:15 -1.6 °C -9.5 °C 1013.8 hPa WNW 2.7 km/h 6.4 km/h 55 % 0 mm
13:20 -1.6 °C -9.7 °C 1013.8 hPa West 3.2 km/h 8 km/h 54 % 0 mm
13:25 -1.3 °C -9 °C 1013.8 hPa West 5.1 km/h 6.4 km/h 56 % 0 mm
13:30 -1.1 °C -8.5 °C 1013.4 hPa WSW 0.5 km/h 1.9 km/h 57 % 0 mm
13:35 -0.7 °C -8.2 °C 1013.8 hPa WSW 3.1 km/h 4.8 km/h 57 % 0 mm
13:40 -0.6 °C -8.7 °C 1013.4 hPa WNW 4.3 km/h 7.4 km/h 54 % 0 mm
13:45 -0.5 °C -8.9 °C 1013.4 hPa West 3.1 km/h 8 km/h 53 % 0 mm
13:50 -0.4 °C -8.6 °C 1013.1 hPa WSW 5 km/h 6.4 km/h 54 % 0 mm
13:55 -0.2 °C -8.2 °C 1013.1 hPa West 2.9 km/h 5.6 km/h 55 % 0 mm
14:00 -0.2 °C -8.8 °C 1013.1 hPa West 0.6 km/h 7.4 km/h 52 % 0 mm
14:06 -0.1 °C -9 °C 1012.8 hPa WNW 3.2 km/h 9.7 km/h 51 % 0 mm
14:11 0 °C -8.7 °C 1013.1 hPa West 3.2 km/h 11.3 km/h 52 % 0 mm
14:16 0.1 °C -8.6 °C 1012.8 hPa WSW 1.6 km/h 6.4 km/h 52 % 0 mm
14:21 0.2 °C -8.5 °C 1013.1 hPa WSW 3.2 km/h 6.4 km/h 52 % 0 mm
14:26 0.3 °C -8.9 °C 1012.8 hPa SW 1.6 km/h 9.7 km/h 50 % 0 mm
14:31 0.4 °C -9.1 °C 1013.1 hPa WSW 7.1 km/h 9.3 km/h 49 % 0 mm
14:36 0.4 °C -8.8 °C 1012.8 hPa SW 8 km/h 11.3 km/h 50 % 0 mm
14:41 0.4 °C -9.1 °C 1012.8 hPa WSW 3.2 km/h 6.4 km/h 49 % 0 mm
14:46 0.4 °C -9.1 °C 1012.8 hPa West 1.6 km/h 9.7 km/h 49 % 0 mm
14:51 0.4 °C -9.3 °C 1012.8 hPa WSW 3.2 km/h 8 km/h 48 % 0 mm
14:56 0.3 °C -9.2 °C 1012.8 hPa WSW 3.2 km/h 9.7 km/h 49 % 0 mm
15:01 0.3 °C -8.9 °C 1012.8 hPa Calm     50 % 0 mm
15:06 0.2 °C -9.5 °C 1012.8 hPa West 0.8 km/h 3.7 km/h 48 % 0 mm
15:11 0.2 °C -9.5 °C 1012.8 hPa WSW 2.3 km/h 5.6 km/h 48 % 0 mm
15:16 0.2 °C -9.5 °C 1012.8 hPa WSW 3.4 km/h 5.6 km/h 48 % 0 mm
15:21 0.3 °C -9.7 °C 1012.8 hPa WNW 5.3 km/h 9.3 km/h 47 % 0 mm
15:26 0.3 °C -8.9 °C 1012.8 hPa WNW 0.8 km/h 3.7 km/h 50 % 0 mm
15:31 0.3 °C -9.4 °C 1012.8 hPa West 3.1 km/h 8 km/h 48 % 0 mm
15:36 0.3 °C -9.7 °C 1012.8 hPa West 1 km/h 3.7 km/h 47 % 0 mm
15:41 0.4 °C -9.4 °C 1012.1 hPa West 2.1 km/h 6.4 km/h 48 % 0 mm
15:46 0.4 °C -9.4 °C 1012.4 hPa West 1.1 km/h 5.6 km/h 48 % 0 mm
15:51 0.4 °C -9.3 °C 1012.4 hPa SSW 6.8 km/h 11.1 km/h 48 % 0 mm
15:57 0.4 °C -9.6 °C 1012.4 hPa SW 8.5 km/h 9.7 km/h 47 % 0 mm
16:02 0.4 °C -10.2 °C 1012.4 hPa SW 4.7 km/h 7.4 km/h 45 % 0 mm
16:07 0.3 °C -9.9 °C 1012.4 hPa SW 7.7 km/h 11.1 km/h 46 % 0 mm
16:12 0.3 °C -9.7 °C 1012.4 hPa SSW 6.9 km/h 11.1 km/h 47 % 0 mm
16:17 0.3 °C -9.4 °C 1012.4 hPa SW 2.7 km/h 5.6 km/h 48 % 0 mm
16:22 0.3 °C -8.9 °C 1012.4 hPa SSW 6.8 km/h 12.9 km/h 50 % 0 mm
16:27 0.2 °C -8.7 °C 1012.1 hPa SSW 1.4 km/h 5.6 km/h 51 % 0 mm
16:32 0.2 °C -8.6 °C 1012.1 hPa SSW 8 km/h 11.3 km/h 52 % 0 mm
16:37 0.1 °C -8.9 °C 1012.1 hPa SW 1.6 km/h 9.3 km/h 51 % 0 mm
16:42 0 °C -8.4 °C 1012.1 hPa SSW 5.8 km/h 7.4 km/h 53 % 0 mm
16:47 -0.2 °C -8.8 °C 1011.7 hPa SSW 2.9 km/h 7.4 km/h 52 % 0 mm
16:52 -0.3 °C -8.9 °C 1011.7 hPa South 4.5 km/h 7.4 km/h 52 % 0 mm
16:57 -0.5 °C -9.2 °C 1011.7 hPa South 1.1 km/h 5.6 km/h 52 % 0 mm
17:02 -0.6 °C -8.8 °C 1011.7 hPa SSW 4.2 km/h 11.1 km/h 54 % 0 mm
17:07 -0.7 °C -8.7 °C 1011.7 hPa South 8.7 km/h 11.3 km/h 55 % 0 mm
17:13 -0.8 °C -8.3 °C 1011.7 hPa South 6.1 km/h 11.3 km/h 57 % 0 mm
17:18 -0.9 °C -8.3 °C 1011.4 hPa South 8.7 km/h 13 km/h 57 % 0 mm
17:23 -1.1 °C -8.3 °C 1011.4 hPa South 3.2 km/h 9.7 km/h 58 % 0 mm
17:28 -1.2 °C -8.2 °C 1011.4 hPa SSW 6.8 km/h 13 km/h 59 % 0 mm
17:33 -1.2 °C -8.2 °C 1011.4 hPa SSW 6 km/h 8 km/h 59 % 0 mm
17:38 -1.3 °C -8.1 °C 1011.4 hPa South 5.3 km/h 9.7 km/h 60 % 0 mm
17:43 -1.4 °C -7.9 °C 1011.1 hPa South 7.4 km/h 11.1 km/h 61 % 0 mm
17:48 -1.5 °C -7.8 °C 1011.4 hPa South 4.3 km/h 7.4 km/h 62 % 0 mm
17:53 -1.6 °C -7.9 °C 1011.4 hPa South 5.5 km/h 9.3 km/h 62 % 0 mm
17:58 -1.6 °C -7.7 °C 1011.4 hPa SSW 4.2 km/h 9.3 km/h 63 % 0 mm
18:03 -1.7 °C -7.8 °C 1011.1 hPa South 3.1 km/h 6.4 km/h 63 % 0 mm
18:08 -1.7 °C -7.7 °C 1011.1 hPa SSW 1.9 km/h 5.6 km/h 64 % 0 mm
18:13 -1.8 °C -7.7 °C 1011.1 hPa SW 1.8 km/h 5.6 km/h 64 % 0 mm
18:18 -1.8 °C -7.5 °C 1011.1 hPa SW 5 km/h 9.3 km/h 65 % 0 mm
18:23 -1.8 °C -7.3 °C 1010.7 hPa SSW 4.7 km/h 5.6 km/h 66 % 0 mm
18:28 -1.8 °C -7.3 °C 1010.7 hPa South 3.1 km/h 5.6 km/h 66 % 0 mm
18:33 -1.9 °C -7.2 °C 1010.4 hPa South 6.4 km/h 9.3 km/h 67 % 0 mm
18:38 -1.9 °C -7.4 °C 1010.4 hPa SSW 1.6 km/h 5.6 km/h 66 % 0 mm
18:43 -1.9 °C -7.2 °C 1010.7 hPa South 2.7 km/h 9.3 km/h 67 % 0 mm
18:49 -1.9 °C -7.2 °C 1010.7 hPa South 5.3 km/h 6.4 km/h 67 % 0 mm
18:54 -1.9 °C -7.2 °C 1010.4 hPa South 1.9 km/h 5.6 km/h 67 % 0 mm
18:59 -1.8 °C -7.2 °C 1010.4 hPa South 4 km/h 7.4 km/h 67 % 0 mm
19:04 -1.8 °C -6.9 °C 1010.4 hPa SSW 3.5 km/h 5.6 km/h 68 % 0 mm
19:09 -1.8 °C -6.7 °C 1010.4 hPa South 7.1 km/h 9.7 km/h 69 % 0 mm
19:14 -1.8 °C -6.7 °C 1010.4 hPa South 3.4 km/h 5.6 km/h 69 % 0 mm
19:19 -1.7 °C -6.5 °C 1010.4 hPa WSW 4 km/h 5.6 km/h 70 % 0 mm
19:24 -1.7 °C -6.2 °C 1010 hPa SSW 3.2 km/h 5.6 km/h 71 % 0 mm
19:29 -1.7 °C -6.1 °C 1010 hPa SSW 4.7 km/h 9.3 km/h 72 % 0 mm
19:34 -1.6 °C -6 °C 1010 hPa SSW 4.5 km/h 7.4 km/h 72 % 0 mm
19:39 -1.6 °C -5.8 °C 1010 hPa SSW 6.9 km/h 9.3 km/h 73 % 0 mm
19:44 -1.5 °C -5.6 °C 1010 hPa SW 7.2 km/h 11.3 km/h 74 % 0 mm
19:49 -1.4 °C -5.5 °C 1010 hPa SSW 8 km/h 14.8 km/h 74 % 0 mm
19:54 -1.4 °C -5.2 °C 1009.7 hPa South 4.7 km/h 11.1 km/h 75 % 0 mm
19:59 -1.3 °C -5.2 °C 1009.7 hPa SSW 6.6 km/h 13 km/h 75 % 0 mm
20:04 -1.2 °C -5.1 °C 1009.7 hPa WSW 7.1 km/h 11.3 km/h 75 % 0 mm
20:09 -1.2 °C -5.1 °C 1009.4 hPa SSW 7.1 km/h 14.8 km/h 75 % 0 mm
20:15 -1.1 °C -5 °C 1009.7 hPa South 9.3 km/h 9.7 km/h 75 % 0 mm
20:20 -1.1 °C -4.9 °C 1009.7 hPa WSW 4.7 km/h 9.3 km/h 75 % 0 mm
20:25 -0.9 °C -4.8 °C 1009.7 hPa SW 2.9 km/h 9.3 km/h 75 % 0 mm
20:30 -0.9 °C -4.8 °C 1009.7 hPa SW 8.5 km/h 14.8 km/h 75 % 0 mm
20:35 -0.8 °C -4.7 °C 1009.7 hPa South 7.7 km/h 11.3 km/h 75 % 0 mm
20:40 -0.7 °C -4.6 °C 1009.7 hPa SSW 6.4 km/h 13 km/h 75 % 0 mm
20:45 -0.7 °C -4.6 °C 1009.4 hPa SSW 9.3 km/h 14.8 km/h 75 % 0 mm
20:50 -0.6 °C -4.4 °C 1009.4 hPa SSW 4.8 km/h 6.4 km/h 75 % 0 mm
20:55 -0.4 °C -4.3 °C 1009.4 hPa South 6.6 km/h 9.7 km/h 75 % 0 mm
21:00 -0.4 °C -4.4 °C 1009.4 hPa South 11.1 km/h 18.5 km/h 74 % 0 mm
21:05 -0.3 °C -4.4 °C 1009.4 hPa SSW 5.6 km/h 11.1 km/h 74 % 0 mm
21:10 -0.2 °C -4.3 °C 1009.4 hPa SSW 14.6 km/h 27.8 km/h 74 % 0 mm
21:15 -0.2 °C -4.4 °C 1009.4 hPa South 16.7 km/h 25.9 km/h 73 % 0 mm
21:20 -0.1 °C -4.4 °C 1009.4 hPa SW 6 km/h 9.3 km/h 73 % 0 mm
21:25 -0.1 °C -4.5 °C 1009.4 hPa SSW 14.2 km/h 25.9 km/h 72 % 0 mm
21:30 -0.1 °C -4.5 °C 1009.4 hPa SSW 12.1 km/h 19.3 km/h 72 % 0 mm
21:35 -0.1 °C -4.5 °C 1009.4 hPa SW 10.9 km/h 13 km/h 72 % 0 mm
21:40 0 °C -4.4 °C 1009.4 hPa WSW 11.1 km/h 20.9 km/h 72 % 0 mm
21:45 0 °C -4.4 °C 1010 hPa SSW 10.5 km/h 20.4 km/h 72 % 0 mm
21:50 0 °C -4.4 °C 1010 hPa WSW 9.7 km/h 20.9 km/h 72 % 0 mm
21:55 0 °C -4.3 °C 1010 hPa SW 12.4 km/h 18.5 km/h 73 % 0 mm
22:01 0 °C -4.3 °C 1010.4 hPa WSW 12.6 km/h 19.3 km/h 73 % 0 mm
22:06 0 °C -4.3 °C 1010 hPa SW 7.6 km/h 16.7 km/h 73 % 0 mm
22:11 0 °C -4.1 °C 1010 hPa SW 8 km/h 18.5 km/h 74 % 0 mm
22:16 0 °C -4.1 °C 1010 hPa SSW 11.7 km/h 22.2 km/h 74 % 0 mm
22:21 0 °C -3.9 °C 1010 hPa SW 5.1 km/h 13 km/h 75 % 0 mm
22:26 0 °C -3.9 °C 1010 hPa SSW 5.1 km/h 11.1 km/h 75 % 0 mm
22:31 0 °C -3.9 °C 1009.7 hPa SSW 8.9 km/h 13 km/h 75 % 0 mm
22:36 -0.1 °C -3.8 °C 1009.7 hPa SSW 9 km/h 16.1 km/h 76 % 0 mm
22:41 0 °C -3.7 °C 1009.7 hPa SSW 5.3 km/h 18.5 km/h 76 % 0 mm
22:46 0 °C -3.9 °C 1009.7 hPa SW 5.6 km/h 9.3 km/h 75 % 0 mm
22:51 0 °C -3.9 °C 1009.7 hPa SW 10 km/h 18.5 km/h 75 % 0 mm
22:56 0 °C -3.9 °C 1009.7 hPa WSW 7.1 km/h 11.1 km/h 75 % 0 mm
23:01 0 °C -3.9 °C 1009.4 hPa South 3.4 km/h 11.1 km/h 75 % 0 mm
23:06 0 °C -3.9 °C 1009.4 hPa WSW 5.1 km/h 18.5 km/h 75 % 0 mm
23:11 0.1 °C -3.8 °C 1009.7 hPa SW 7.7 km/h 16.7 km/h 75 % 0 mm
23:16 0.1 °C -4.1 °C 1009.7 hPa SSW 8.7 km/h 16.7 km/h 74 % 0 mm
23:22 0.1 °C -4 °C 1010 hPa SSW 5.3 km/h 9.3 km/h 74 % 0 mm
23:27 0.1 °C -4 °C 1010 hPa South 7.6 km/h 14.8 km/h 74 % 0 mm
23:32 0.1 °C -4.2 °C 1010 hPa SSW 7.7 km/h 16.7 km/h 73 % 0 mm
23:37 0.2 °C -4.1 °C 1009.7 hPa SW 7.2 km/h 25.9 km/h 73 % 0 mm
23:42 0.2 °C -4.3 °C 1009.7 hPa WSW 3.4 km/h 7.4 km/h 72 % 0 mm
23:47 0.2 °C -4.2 °C 1009.7 hPa SW 8.5 km/h 18.5 km/h 72 % 0 mm
23:52 0.2 °C -4.4 °C 1009.7 hPa South 9 km/h 14.8 km/h 71 % 0 mm
23:57 0.2 °C -4.4 °C 1009.7 hPa SW 4.7 km/h 5.6 km/h 71 % 0 mm
Crab Meadow Weather
Compliments of Weather Underground - 3 mb

Script developed by  Jim McMurry - jmcmurry@mwt.net Adapted for the template by  Wim van der Kuil - Leuven-Template.eu

Weather Terms: Wind Chill - An apparent temperature that describes the combined effect of wind and low temperature on exposed skin.